Вернуться в каталог

CRRES DEB

CANISTER

LostHEO
NORAD 21590·DEBRIS·🇺🇸 United States

Запущен Jul 25, 1990 с Cape Canaveral Space Force Station

Loading…

Ближайшие Пролёты (ближайшие 24 часа)

TLE

УстаревшееSource: Space-Track

Эпоха: Apr 30, 2026, 22:01 UTC

1 21590U 90065F   26120.91739433  .00000365  00000-0  73657-3 0  9992
2 21590  20.6033 357.8366 6938116 253.5079  24.9563  2.68221463128370

Отслеживайте CRRES DEB в реальном времени с AllMySat

Download on the App Store